Tiempo Historia de Resistencia, Argentina

Change the Weather History Date:

Miércoles, Marzo 14, 2012

  Actual Average Record
Temperature  
Temperatura media 78 ° F -  
Temperatura máxima 88 ° F 81 ° F 96 ° F (2001)
Temperatura mínima 67 ° F 63 ° F 51 ° F (2011)
Cooling Degree Days 12    
Growing Degree Days 28 (Base 50)    
Moisture  
Punto de rocío 66 ° F    
Average Humidity 74    
Maximum Humidity 100    
Minimum Humidity 43    
Precipitación  
Precipitación 0.00 pul - - ()
Presión al nivel del mar  
Presión al nivel del mar 29.92 pul    
Viento  
Velocidad del viento 5 mph ()    
Velocidad máxima del viento 9 mph    
Max Gust Speed -    
Visibilidad 6.6 Millas    
Eventos      
Averages and records for this station are not official NWS values.
T = Trace of Precipitation, MM = Missing Value Source: Averaged Metar Reports

Daily Weather History Graph

Daily Weather History Graph

Search for Another Location

Airport:

Trip Planner

Search our weather history database for the weather conditions in past years. The results will help you decide how hot, cold, wet, or windy it might be!

Date:

Astronomía

Mar. 14, 2012 Salida Puesta
Hora real 6:56 AM ART 7:13 PM ART
Crepúsculo civil 6:33 AM ART 7:36 PM ART
Crepúsculo náutico 6:06 AM ART 8:03 PM ART
Crepúsculo astronómico 5:38 AM ART 8:31 PM ART
Luna Sin salida de luna 1:28 PM ART (3/14)
Horas de luz 13h 03m
Horas de luz
12h 16m
Gibosa menguante, 55% of the Moon is Illuminated
Mar 14
Gibosa menguante
Mar 14
Cuarto menguante
Mar 22
Nueva
Mar 30
Cuarto creciente
Abr 6
Luna llena

Hourly Weather History & Observations

Hora (ART) Temp. Índice de calor Punto de rocío Humedad Presión Visibilidad Wind Dir Velocidad del viento Velocidad de ráfagas Precip Eventos Condiciones
1:00 AM 71.6 ° F - 68.0 ° F 88% 29.83 pul 6.2 mi Sur 1.2 mph - N/A   Desconocido
2:00 AM 69.8 ° F - 68.0 ° F 94% 29.89 pul - SO 9.2 mph - N/A   Despejado
3:00 AM 70 ° F - 68 ° F 91% 29.88 pul 9 mi SO 8.1 mph - -   Parcialmente nublado
3:00 AM 69.8 ° F - 68.0 ° F 94% 29.89 pul 6.2 mi SO 8.1 mph - N/A   Muy nublado
4:00 AM 69.8 ° F - 68.0 ° F 94% 29.89 pul 6.2 mi SO 5.8 mph - N/A   Muy nublado
5:00 AM 68.0 ° F - 68.0 ° F 100% 29.86 pul 6.2 mi SO 5.8 mph - N/A   Nublado
6:00 AM 68.0 ° F - 66.2 ° F 94% 29.89 pul 6.2 mi SSE 3.5 mph - N/A   Nublado
7:00 AM 68.0 ° F - 66.2 ° F 94% 29.89 pul 6.2 mi SSE 6.9 mph - N/A   Nublado
8:00 AM 68.0 ° F - 66.2 ° F 94% 29.92 pul 6.2 mi SSE 5.8 mph - N/A   Nublado
9:00 AM 69 ° F - 66 ° F 88% 29.96 pul 9 mi SSE 3.5 mph - -   Nublado
9:00 AM 69.8 ° F - 66.2 ° F 88% 29.95 pul 6.2 mi SSE 3.5 mph - N/A   Nublado
10:00 AM 71.6 ° F - 66.2 ° F 83% 29.95 pul 6.2 mi SSE 6.9 mph - N/A   Muy nublado
11:00 AM 75.2 ° F - 68.0 ° F 78% 29.95 pul 6.2 mi SSO 2.3 mph - N/A   Muy nublado
12:00 PM 78.8 ° F - 66.2 ° F 65% 29.98 pul 6.2 mi SSO 2.3 mph - N/A   Muy nublado
1:00 PM 80.6 ° F 82.7 ° F 66.2 ° F 61% 29.98 pul 6.2 mi Sur 4.6 mph - N/A   Muy nublado
2:00 PM 84.2 ° F 86.6 ° F 66.2 ° F 55% 29.95 pul 6.2 mi Sur 8.1 mph - N/A   Muy nublado
3:00 PM 85 ° F - 66 ° F 43% 29.93 pul 9 mi SSE 6.9 mph - -   Parcialmente nublado
3:00 PM 84.2 ° F 86.6 ° F 66.2 ° F 55% 29.92 pul 6.2 mi SSE 6.9 mph - N/A   Muy nublado
4:00 PM 86.0 ° F 88.2 ° F 66.2 ° F 51% 29.92 pul 6.2 mi Sur 4.6 mph - N/A   Nubes dispersas
5:00 PM 86.0 ° F 87.3 ° F 64.4 ° F 48% 29.89 pul 6.2 mi Sur 3.5 mph - N/A   Nubes dispersas
6:00 PM 84.2 ° F 85.6 ° F 64.4 ° F 51% 29.89 pul 6.2 mi Sur 9.2 mph - N/A   Nubes dispersas
7:00 PM 82.4 ° F 83.9 ° F 64.4 ° F 54% 29.92 pul 6.2 mi Sur 6.9 mph - N/A   Nubes dispersas
8:00 PM 80.6 ° F 82.3 ° F 64.4 ° F 58% 29.92 pul 6.2 mi Sur 4.6 mph - N/A   Parcialmente nublado
9:00 PM 76 ° F - 65 ° F 60% 29.95 pul 9 mi Sur 2.3 mph - -  
9:00 PM 77.0 ° F - 64.4 ° F 65% 29.95 pul 6.2 mi Sur 2.3 mph - N/A   Desconocido
10:00 PM 73.4 ° F - 62.6 ° F 69% 29.98 pul 6.2 mi Sur 4.6 mph - N/A   Desconocido
11:00 PM 69.8 ° F - 64.4 ° F 83% 29.98 pul 6.2 mi Sur 3.5 mph - N/A   Desconocido